[[{"header":{"parameterUnit":"m.s-1","parameterCategory":1,"la1":30.2991,"la2":30.254,"lo1":-89.0895,"lo2":-89.0444,"dy":0.0017,"dx":0.0017,"nx":28,"ny":28,"refTime":"2023-09-09T21:00:00:Z","depth":0,"parameterNumber":2,"parameterNumberName":"U-component_of_WINDS"},"data":[0,0,0,0,0,0,0,0,0,0,0,0,0,0,0,0,0,0,0,0,0,0,0,0,0,0,0,0,0,0,0,0,0,0,0,0,0,0,0,0,0,0,0,0,0,0,0,0,0,0,0,0,0,0,0,0,0,0,-1.2348,-1.2347,0,-1.2214,-1.2212,-1.221,-1.205,-1.2047,-1.2045,-1.2043,-1.1907,-1.1906,-1.1905,0,0,0,0,0,0,0,0,0,0,0,0,0,-1.2469,-1.2467,-1.2349,-1.2347,-1.2345,-1.2214,-1.2212,-1.221,-1.205,-1.2047,-1.2044,-1.2042,-1.1908,-1.1906,-1.1905,0,0,0,0,0,0,0,0,0,0,0,0,0,-1.2384,-1.2467,-1.2349,-1.225,-1.2239,-1.2214,-1.2212,-1.221,-1.2051,-1.2047,-1.2044,-1.204,-1.1908,-1.1906,-1.1904,-1.1967,0,0,-1.1898,-1.1898,0,0,0,0,0,0,0,0,-1.2389,-1.2379,-1.2266,-1.2256,-1.2245,-1.2145,-1.2204,-1.2128,-1.2052,-1.2123,-1.2043,-1.2038,-1.1989,-1.1981,-1.1963,-1.196,-1.1954,-1.1898,-1.1897,-1.1896,-1.1896,0,0,0,0,0,0,0,-1.2395,-1.2384,-1.2295,-1.2264,-1.2252,-1.2212,-1.2196,-1.2189,-1.2079,-1.2116,-1.2104,-1.209,-1.1983,-1.1966,-1.1959,-1.1952,-1.1898,-1.1897,-1.1895,-1.1895,-1.1992,-1.1995,0,0,0,0,0,0,-1.2415,-1.239,-1.2299,-1.2291,-1.2309,-1.2213,-1.2195,-1.2181,-1.2078,-1.2059,-1.2094,-1.2083,-1.1971,-1.1962,-1.1954,-1.2019,-1.1896,-1.1894,-1.1893,-1.1988,-1.1993,-1.1997,0,0,0,0,0,0,-1.2419,-1.2409,-1.2305,-1.2337,-1.2321,-1.2215,-1.22,-1.218,-1.2162,-1.2061,-1.2041,-1.2096,-1.1968,-1.1956,-1.1964,-1.2012,-1.1893,-1.1892,-1.1984,-1.1989,-1.1995,-1.2151,0,0,0,0,0,0,-1.2423,-1.2411,-1.2434,-1.2339,-1.232,-1.2318,-1.2203,-1.218,-1.2159,-1.2145,-1.2058,-1.204,-1.1964,-1.1968,-1.1962,-1.2007,-1.189,-1.1979,-1.1986,-1.1993,-1.2141,-1.2161,-1.2178,0,0,0,0,0,-1.2428,-1.2484,-1.2435,-1.2425,-1.2346,-1.2321,-1.231,-1.222,-1.2164,-1.2186,-1.212,-1.2043,-1.2008,-1.197,-1.1962,-1.2007,-1.1975,-1.1984,-1.1992,-1.2133,-1.2157,-1.2178,0,0,0,0,0,0,-1.2588,-1.247,-1.2415,-1.2442,-1.2393,-1.2294,-1.2319,-1.2249,-1.2215,-1.2203,-1.2093,-1.2075,-1.2096,-1.2052,-1.2012,-1.2061,-1.198,-1.1988,-1.2089,-1.2112,-1.213,-1.2141,-1.1889,0,0,0,0,0,-1.2626,-1.2615,-1.2513,-1.2547,-1.2524,-1.2426,-1.2412,-1.2347,-1.2291,-1.227,-1.2205,-1.2155,-1.2132,-1.2119,-1.2093,-1.2133,-1.2112,-1.2161,-1.2179,-1.2195,-1.2203,-1.222,-1.224,-1.2024,-1.2024,-1.2024,0,0,-1.2706,-1.264,-1.264,-1.2577,-1.2531,-1.2522,-1.241,-1.2406,-1.2398,-1.2269,-1.2272,-1.2223,-1.2159,-1.2184,-1.2191,-1.2148,-1.2257,-1.2206,-1.2219,-1.2218,-1.2231,-1.2251,-1.2269,-1.203,-1.2029,-1.2028,0,0,-1.2846,-1.2795,-1.2817,-1.2773,-1.2704,-1.2638,-1.2644,-1.2555,-1.2517,-1.2517,-1.242,-1.241,-1.2373,-1.2331,-1.2306,-1.2429,-1.2356,-1.2423,-1.2521,-1.2539,-1.2556,-1.257,-1.2613,-1.263,-1.2431,-1.2431,-1.2432,0,-1.2954,-1.2936,-1.2838,-1.2839,-1.2814,-1.2696,-1.2717,-1.2679,-1.2606,-1.2592,-1.2544,-1.2494,-1.2443,-1.2455,-1.2485,-1.2468,-1.2471,-1.2433,-1.2561,-1.2575,-1.2587,-1.2627,-1.2643,-1.244,-1.2439,-1.2438,-1.2437,0,-1.3072,-1.3061,-1.3087,-1.3018,-1.2996,-1.3008,-1.2911,-1.29,-1.2836,-1.2776,-1.2777,-1.2712,-1.2669,-1.2667,-1.2606,-1.267,-1.2645,-1.2581,-1.2497,-1.2618,-1.2653,-1.2668,-1.2452,-1.2449,-1.2446,-1.2444,0,0,-1.3311,-1.3185,-1.3196,-1.3163,-1.3078,-1.3068,-1.3074,-1.3031,-1.3024,-1.2977,-1.2979,-1.2949,-1.2889,-1.286,-1.2792,-1.2808,-1.2908,-1.2741,-1.2738,-1.2774,-1.2974,-1.3023,-1.3042,-1.2859,-1.2862,-1.2864,-1.2979,0,-1.3435,-1.3437,-1.3348,-1.3375,-1.3364,-1.325,-1.3255,-1.3204,-1.3147,-1.3129,-1.3065,-1.3046,-1.2968,-1.2949,-1.296,-1.2894,-1.2947,-1.2884,-1.286,-1.286,-1.288,-1.3061,-1.3113,-1.3225,-1.2993,-1.2995,-1.2997,0,-1.3581,-1.3541,-1.3567,-1.3479,-1.3471,-1.3477,-1.343,-1.3414,-1.3353,-1.331,-1.3277,-1.3199,-1.3198,-1.3119,-1.3116,-1.3075,-1.306,-1.3026,-1.3028,-1.3023,-1.2936,-1.306,-1.3259,-1.3276,-1.3018,-1.3016,-1.3015,0,-1.3752,-1.3705,-1.3713,-1.3689,-1.3586,-1.3593,-1.3551,-1.3486,-1.3465,-1.3424,-1.341,-1.337,-1.3348,-1.3319,-1.3232,-1.3183,-1.324,-1.3153,-1.3204,-1.3206,-1.3221,-1.3221,-1.342,-1.3212,-1.3212,-1.3212,-1.3211,0,-1.39,-1.3921,-1.3789,-1.3795,-1.3813,-1.371,-1.3732,-1.3679,-1.3622,-1.3615,-1.3515,-1.351,-1.3396,-1.3379,-1.3312,-1.3319,-1.331,-1.3276,-1.3257,-1.3284,-1.3289,-1.3273,-1.3263,-1.3216,-1.3215,-1.3214,-1.3214,0,-1.4095,-1.4007,-1.4009,-1.3912,-1.3888,-1.3906,-1.3823,-1.3824,-1.376,-1.3752,-1.3744,-1.3645,-1.3619,-1.3529,-1.3483,-1.3437,-1.3465,-1.3431,-1.3486,-1.3474,-1.353,-1.3526,-1.3725,-1.3745,-1.3526,-1.3528,-1.353,0,-1.4196,-1.4208,-1.4111,-1.4099,-1.4061,-1.4043,-1.4021,-1.392,-1.3901,-1.3831,-1.3841,-1.3807,-1.3774,-1.3739,-1.3662,-1.3625,-1.3588,-1.3661,-1.3582,-1.3608,-1.3588,-1.3589,-1.3589,-1.3678,-1.3681,-1.3683,-1.3685,0,-1.4383,-1.4338,-1.431,-1.4267,-1.4244,-1.4205,-1.416,-1.4156,-1.4043,-1.4027,-1.3999,-1.3974,-1.3924,-1.3892,-1.3842,-1.3798,-1.3723,-1.371,-1.372,-1.3747,-1.3779,-1.3762,-1.3532,-1.3706,-1.3704,-1.3703,-1.3701,-1.3701,-1.4532,-1.4538,-1.447,-1.4442,-1.4398,-1.4358,-1.4354,-1.4288,-1.4263,-1.4215,-1.4156,-1.4135,-1.4072,-1.3997,-1.3959,-1.3941,-1.39,-1.3914,-1.3917,-1.3922,-1.3935,-1.3782,-1.3932,-1.3931,-1.393,-1.3929,-1.3929,0,-1.4714,-1.4665,-1.464,-1.458,-1.4557,-1.4487,-1.4434,-1.442,-1.4402,-1.4349,-1.4319,-1.4286,-1.4254,-1.4174,-1.4134,-1.4134,-1.4099,-1.4127,-1.4126,-1.4117,-1.3975,-1.397,-1.4157,-1.4157,-1.4157,-1.4156,-1.4156,-1.4156,-1.4806,-1.4811,-1.4758,-1.474,-1.469,-1.4668,-1.4643,-1.4606,-1.4563,-1.453,-1.4502,-1.445,-1.4386,-1.434,-1.4307,-1.4284,-1.4274,-1.4314,-1.428,-1.4149,-1.4127,-1.4106,-1.4101,-1.4312,-1.4313,-1.4423,-1.4424,-1.4425]},{"header":{"parameterUnit":"m.s-1","parameterCategory":1,"la1":30.2991,"la2":30.254,"lo1":-89.0895,"lo2":-89.0444,"dy":0.0017,"dx":0.0017,"nx":28,"ny":28,"refTime":"2023-09-09T21:00:00:Z","depth":0,"parameterNumber":3,"parameterNumberName":"V-component_of_WINDS"},"data":[0,0,0,0,0,0,0,0,0,0,0,0,0,0,0,0,0,0,0,0,0,0,0,0,0,0,0,0,0,0,0,0,0,0,0,0,0,0,0,0,0,0,0,0,0,0,0,0,0,0,0,0,0,0,0,0,0,0,-3.7057,-3.7057,0,-3.7101,-3.7102,-3.7102,-3.7042,-3.7039,-3.7037,-3.7035,-3.7076,-3.7079,-3.7082,0,0,0,0,0,0,0,0,0,0,0,0,0,-3.6914,-3.6917,-3.7057,-3.7057,-3.7058,-3.7101,-3.7102,-3.7103,-3.7042,-3.7039,-3.7037,-3.7034,-3.7075,-3.7079,-3.7083,0,0,0,0,0,0,0,0,0,0,0,0,0,-3.6969,-3.6918,-3.7057,-3.7033,-3.7031,-3.7101,-3.7102,-3.7103,-3.7043,-3.7039,-3.7036,-3.7033,-3.7074,-3.7079,-3.7083,-3.7177,0,0,-3.7097,-3.7099,0,0,0,0,0,0,0,0,-3.6966,-3.6974,-3.7036,-3.7035,-3.7033,-3.7063,-3.7067,-3.7127,-3.7043,-3.7038,-3.7035,-3.7031,-3.7074,-3.7079,-3.7094,-3.7179,-3.7181,-3.7098,-3.7101,-3.7103,-3.7104,0,0,0,0,0,0,0,-3.6962,-3.6972,-3.7074,-3.7037,-3.7035,-3.7018,-3.7023,-3.7078,-3.7074,-3.7038,-3.7034,-3.704,-3.7073,-3.709,-3.7094,-3.7181,-3.7098,-3.7102,-3.7105,-3.7107,-3.7344,-3.7348,0,0,0,0,0,0,-3.6962,-3.6969,-3.7073,-3.7076,-3.6991,-3.7024,-3.7028,-3.7056,-3.7073,-3.7072,-3.7043,-3.7037,-3.7083,-3.7089,-3.7096,-3.7205,-3.7103,-3.7107,-3.711,-3.7341,-3.7345,-3.7349,0,0,0,0,0,0,-3.6959,-3.6972,-3.7071,-3.7021,-3.7033,-3.703,-3.7061,-3.7059,-3.7076,-3.7077,-3.7075,-3.7062,-3.7081,-3.7089,-3.7157,-3.7206,-3.7109,-3.7113,-3.7337,-3.7342,-3.7347,-3.7427,0,0,0,0,0,0,-3.6955,-3.6971,-3.7008,-3.7023,-3.7036,-3.7134,-3.7065,-3.7062,-3.7085,-3.7078,-3.7093,-3.7093,-3.7079,-3.7151,-3.7162,-3.7211,-3.7117,-3.7332,-3.7339,-3.7345,-3.742,-3.7434,-3.7446,0,0,0,0,0,-3.695,-3.7027,-3.701,-3.7023,-3.7082,-3.7136,-3.7144,-3.7127,-3.7089,-3.7125,-3.7125,-3.7092,-3.7199,-3.7158,-3.717,-3.7221,-3.7329,-3.7337,-3.7345,-3.7413,-3.7431,-3.7446,0,0,0,0,0,0,-3.7016,-3.7029,-3.7009,-3.7094,-3.7115,-3.7126,-3.7171,-3.7147,-3.7177,-3.7169,-3.7146,-3.715,-3.7223,-3.7229,-3.7183,-3.7312,-3.7257,-3.7268,-3.7306,-3.7322,-3.7335,-3.7332,-3.7121,0,0,0,0,0,-3.7041,-3.7086,-3.7094,-3.7168,-3.718,-3.7174,-3.7197,-3.7183,-3.7203,-3.7211,-3.7216,-3.7235,-3.7273,-3.7298,-3.7333,-3.7421,-3.7422,-3.7462,-3.7475,-3.7486,-3.7495,-3.754,-3.7557,-3.7375,-3.7375,-3.7375,0,0,-3.7092,-3.7104,-3.7134,-3.7182,-3.7196,-3.7241,-3.7181,-3.7232,-3.7265,-3.7218,-3.7283,-3.7288,-3.7307,-3.7386,-3.742,-3.7393,-3.7546,-3.7496,-3.7505,-3.7508,-3.755,-3.7568,-3.7583,-3.738,-3.7379,-3.7378,0,0,-3.7207,-3.7222,-3.7285,-3.7301,-3.7325,-3.732,-3.7336,-3.7351,-3.7353,-3.7418,-3.7383,-3.7422,-3.7488,-3.7503,-3.7519,-3.7642,-3.7612,-3.7654,-3.7723,-3.7768,-3.7782,-3.7795,-3.7837,-3.7852,-3.7663,-3.7664,-3.7664,0,-3.7267,-3.7336,-3.732,-3.7373,-3.7395,-3.7356,-3.7419,-3.7435,-3.7467,-3.7482,-3.7452,-3.7534,-3.7544,-3.7625,-3.7655,-3.767,-3.7685,-3.7651,-3.7782,-3.7794,-3.7805,-3.7845,-3.7861,-3.7668,-3.7668,-3.7667,-3.7667,0,-3.7407,-3.7455,-3.7503,-3.7538,-3.7565,-3.7622,-3.7614,-3.7642,-3.7627,-3.7625,-3.7691,-3.7703,-3.774,-3.7758,-3.7742,-3.7837,-3.7819,-3.7786,-3.7729,-3.7828,-3.7865,-3.788,-3.7675,-3.7673,-3.7672,-3.7671,0,0,-3.7563,-3.759,-3.7607,-3.7622,-3.7646,-3.7682,-3.7738,-3.7775,-3.7799,-3.7824,-3.7868,-3.7926,-3.7895,-3.7914,-3.79,-3.7939,-3.8034,-3.7901,-3.7901,-3.7924,-3.8137,-3.816,-3.8178,-3.8015,-3.8018,-3.8021,-3.8134,0,-3.7677,-3.7775,-3.7763,-3.7856,-3.7899,-3.7864,-3.7912,-3.7931,-3.7932,-3.7968,-3.7967,-3.8008,-3.7965,-3.7976,-3.8014,-3.8015,-3.8076,-3.8006,-3.8055,-3.8057,-3.8049,-3.8198,-3.8223,-3.8329,-3.8149,-3.8151,-3.8153,0,-3.7823,-3.7855,-3.7953,-3.7969,-3.7987,-3.8031,-3.8064,-3.8099,-3.812,-3.8117,-3.8139,-3.8118,-3.8172,-3.8117,-3.819,-3.8143,-3.8162,-3.8165,-3.8169,-3.8171,-3.8109,-3.8202,-3.8363,-3.8378,-3.8176,-3.8174,-3.8173,0,-3.7925,-3.7992,-3.8059,-3.8073,-3.8095,-3.8126,-3.8137,-3.8154,-3.8177,-3.8206,-3.822,-3.8254,-3.8272,-3.8299,-3.8286,-3.8248,-3.8361,-3.8306,-3.8359,-3.8359,-3.8382,-3.8381,-3.8547,-3.8399,-3.8398,-3.8398,-3.8398,0,-3.8052,-3.8113,-3.8105,-3.8146,-3.8213,-3.8198,-3.8264,-3.8269,-3.8285,-3.8325,-3.8297,-3.8335,-3.8318,-3.8354,-3.8346,-3.8406,-3.8415,-3.8413,-3.841,-3.8415,-3.8415,-3.8425,-3.8416,-3.8402,-3.8401,-3.8401,-3.84,0,-3.8176,-3.8174,-3.8244,-3.826,-3.8265,-3.8314,-3.8326,-3.8364,-3.8363,-3.8414,-3.8425,-3.8423,-3.8465,-3.8456,-3.8501,-3.8495,-3.8571,-3.8559,-3.8565,-3.8561,-3.8614,-3.8608,-3.8791,-3.8813,-3.8653,-3.8654,-3.8656,0,-3.8257,-3.8303,-3.8324,-3.835,-3.8363,-3.8405,-3.8429,-3.8417,-3.8442,-3.847,-3.8504,-3.8543,-3.8573,-3.8641,-3.8642,-3.8677,-3.8664,-3.8726,-3.8669,-3.8672,-3.8662,-3.8659,-3.8663,-3.8736,-3.8738,-3.874,-3.8741,0,-3.8399,-3.8396,-3.8433,-3.847,-3.85,-3.8527,-3.8552,-3.8574,-3.8563,-3.8594,-3.8637,-3.8661,-3.8708,-3.8746,-3.8778,-3.8787,-3.8761,-3.8759,-3.8773,-3.8777,-3.8778,-3.8776,-3.8593,-3.8754,-3.8753,-3.8752,-3.8751,-3.8751,-3.8502,-3.8541,-3.8563,-3.8605,-3.8623,-3.8647,-3.8683,-3.8687,-3.8724,-3.8762,-3.8752,-3.88,-3.8819,-3.886,-3.8872,-3.8909,-3.8885,-3.8905,-3.891,-3.8915,-3.892,-3.8774,-3.8914,-3.8914,-3.8914,-3.8913,-3.8913,0,-3.8641,-3.8654,-3.8693,-3.8729,-3.8762,-3.8739,-3.8765,-3.8793,-3.8836,-3.8857,-3.8888,-3.8937,-3.8975,-3.898,-3.9015,-3.9044,-3.9033,-3.9053,-3.9049,-3.9051,-3.894,-3.8924,-3.9061,-3.9061,-3.9061,-3.9061,-3.9061,-3.9061,-3.8717,-3.8782,-3.8782,-3.8855,-3.8866,-3.8915,-3.8932,-3.8953,-3.8969,-3.9026,-3.9058,-3.9062,-3.9076,-3.9112,-3.9145,-3.9145,-3.9159,-3.9183,-3.9179,-3.9074,-3.9059,-3.9045,-3.903,-3.9187,-3.9187,-3.9286,-3.9287,-3.9288]}]]